Simultaneous Nadir Overpasses (SNOs) Predictions

Prediction of SNOs between NOAA-19 and TERRA Satellite Orbit:

Table of predicted SNOs for the next 14.0 days since TLE Epoch: 4/19/2014
Index Date (NOAA-19) Time (NOAA-19) Lat,Lon (NOAA-19) SZA (NOAA-19 ) Date (TERRA) Time (TERRA) Lat,Lon (TERRA) SZA (TERRA ) Distance(km) Time Diff (sec)
1 04/20/2014 10:33:35 70.38, 22.79 58.72 04/20/2014 10:33:42 70.39, 22.86 58.72 2.72 7
2 04/20/2014 11:24:29 -69.90,-169.21 121.78 04/20/2014 11:23:17 -69.99,-170.08 121.70 34.65 72
3 04/22/2014 15:17:30 70.39, -48.18 57.98 04/22/2014 15:17:57 70.37, -48.22 57.96 2.40 27
4 04/22/2014 16:08:30 -70.24, 119.30 122.18 04/22/2014 16:07:27 -70.25, 119.24 122.17 2.72 63
5 04/24/2014 20:01:26 70.45,-119.24 57.32 04/24/2014 20:02:10 70.44,-119.17 57.31 2.56 44
6 04/24/2014 20:52:25 -70.28, 48.28 122.87 04/24/2014 20:51:41 -70.27, 48.21 122.88 2.90 44
7 04/27/2014 00:45:21 70.48, 169.77 56.63 04/27/2014 00:46:23 70.49, 169.84 56.65 3.04 62
8 04/27/2014 01:36:20 -70.33, -22.75 123.52 04/27/2014 01:35:54 -70.32, -22.77 123.54 1.38 26
9 04/29/2014 05:29:22 70.82, 98.24 56.28 04/29/2014 05:30:33 70.68, 99.06 56.15 34.33 71
10 04/29/2014 06:20:13 -70.34, -93.72 124.20 04/29/2014 06:20:06 -70.35, -93.79 124.20 2.64 7
11 05/01/2014 11:04:08 -70.42,-164.79 124.80 05/01/2014 11:04:18 -70.40,-164.76 124.82 1.97 10
